BSAT-3C (JCSAT-110R)

Last updated on Dec. 5, 2020, 6:14 a.m. UTC

1 37776U 11041B   20339.77302358 -.00000335  00000-0  00000-0 0  9991
2 37776   0.0149  15.5773 0000245 323.7725 122.9463  1.00268355 30239
UTC
Height (km)
Latitude
Longitude
Inclination
Orbital Period
UTC large
Height (km)
Speed (km/s)
/
Latitude / Longitude
Inclination (degrees)
Orbital Period (minutes)
Azimuth
Elevation
Range (km)
Doppler Factor
iOS Compass Heading
iOS Angle

Next 30 passes for location: Hong Kong

Rise time Rise Azimuth (degrees) Set time Set Azimuth (degrees) Duration Max altitude (degrees)

No matching passes for this satellites